DECPP EDDH-ZZZZ

Flight info

Callsign DECPP
Flight time N/A
Altitude
Route
Aircraft DR40

Departure

Time 2026-04-23 19:51
Airport Hamburg Helmut Schmidt Airport (EDDH)

Arrival

Time N/A
Airport ZZZZ
Time Latitude Longitude Altitude Speed Heading
2026-04-23 19:37 53.63212 9.99967 33 ft 0 kts 320°
2026-04-23 19:44 53.63215 9.99963 44 ft 6 kts 330°
2026-04-23 19:45 53.63261 9.99869 39 ft 12 kts 315°
2026-04-23 19:45 53.63273 9.99757 39 ft 9 kts 214°
2026-04-23 19:45 53.63192 9.99780 39 ft 14 kts 146°
2026-04-23 19:45 53.63109 9.99860 39 ft 10 kts 152°
2026-04-23 19:46 53.63041 9.99913 39 ft 11 kts 159°
2026-04-23 19:46 53.62973 9.99978 39 ft 12 kts 153°
2026-04-23 19:46 53.62909 9.99953 40 ft 9 kts 238°
2026-04-23 19:46 53.62905 9.99942 40 ft 0 kts 243°
2026-04-23 19:47 53.62898 9.99916 40 ft 13 kts 245°
2026-04-23 19:47 53.62863 9.99787 41 ft 11 kts 262°
2026-04-23 19:48 53.62876 9.99737 41 ft 0 kts 333°
2026-04-23 19:50 53.63060 9.99578 45 ft 60 kts 328°
2026-04-23 19:50 53.63492 9.99210 189 ft 76 kts 322°
2026-04-23 19:50 53.64027 9.98953 422 ft 85 kts 349°
2026-04-23 19:51 53.64611 9.99234 708 ft 90 kts 12°
2026-04-23 19:51 53.65200 9.99583 932 ft 90 kts
2026-04-23 19:51 53.65829 9.99858 1106 ft 92 kts
2026-04-23 19:51 53.66445 10.00188 1235 ft 98 kts
2026-04-23 19:52 53.67105 10.00575 1364 ft 102 kts 12°
2026-04-23 19:52 53.67742 10.01084 1521 ft 103 kts 17°
2026-04-23 19:52 53.68379 10.01623 1623 ft 102 kts 14°
2026-04-23 19:52 53.69030 10.02073 1679 ft 102 kts 12°
2026-04-23 19:53 53.69702 10.02466 1662 ft 103 kts 10°
2026-04-23 19:53 53.70382 10.02797 1653 ft 101 kts
2026-04-23 19:53 53.71057 10.03064 1628 ft 102 kts
2026-04-23 19:53 53.71740 10.03312 1700 ft 98 kts
2026-04-23 19:54 53.72422 10.03544 1680 ft 102 kts
2026-04-23 19:54 53.73108 10.03762 1731 ft 99 kts 359°
2026-04-23 19:54 53.73792 10.03903 1760 ft 99 kts 358°
2026-04-23 19:54 53.74451 10.03907 1800 ft 93 kts 350°
2026-04-23 19:55 53.75100 10.03834 1765 ft 95 kts 352°
2026-04-23 19:55 53.75757 10.03781 1746 ft 94 kts 351°
2026-04-23 19:55 53.76410 10.03752 1735 ft 94 kts 354°
2026-04-23 19:55 53.77074 10.03756 1693 ft 96 kts 353°
2026-04-23 19:56 53.77740 10.03804 1690 ft 97 kts 354°
2026-04-23 19:56 53.78424 10.03845 1693 ft 99 kts 354°
2026-04-23 19:56 53.79100 10.03940 1744 ft 97 kts
2026-04-23 19:56 53.79776 10.04124 1733 ft 98 kts
2026-04-23 19:57 53.80443 10.04258 1743 ft 96 kts 357°
2026-04-23 19:57 53.81029 10.04316 1752 ft 95 kts 355°